Weather History for KGJT - April, 2012

Change the Weather History Date:

Monday, April 23, 2012

  Actual Average Record
Temperature  
Mean Temperature 70 °F 54 °F  
Max Temperature 89 °F 68 °F 89 °F (2012)
Min Temperature 51 °F 40 °F 28 °F (1968)
Degree Days  
Heating Degree Days 0 11  
Month to date heating degree days 253 332  
Since 1 July heating degree days 4867 5364  
Cooling Degree Days 5 0  
Month to date cooling degree days 8 0  
Year to date cooling degree days 8 0  
Growing Degree Days 21 (Base 50)    
Moisture  
Dew Point 22 °F    
Average Humidity 24    
Maximum Humidity 41    
Minimum Humidity 6    
Precipitation  
Precipitation 0.00 in 0.02 in 0.38 in (2007)
Month to date precipitation 0.29 0.71  
Year to date precipitation 1.29 2.75  
Snow  
Snow 0.00 in 0.00 in 0.00 in (2014)
Month to date snowfall T 0.8  
Since 1 July snowfall 8.2 18.9  
Snow Depth 0.00 in    
Sea Level Pressure  
Sea Level Pressure 29.90 in    
Wind  
Wind Speed 8 mph (ESE)    
Max Wind Speed 15 mph    
Max Gust Speed 17 mph    
Visibility 10 miles    
Events      
T = Trace of Precipitation, MM = Missing Value Source: NWS Daily Summary

Daily Weather History Graph

Daily Weather History Graph

Search for Another Location

Airport or City:

Trip Planner

Search our weather history database for the weather conditions in past years. The results will help you decide how hot, cold, wet, or windy it might be!

Date:

Astronomy

Apr. 23, 2012 Rise Set
Actual Time 6:25 AM MDT 7:59 PM MDT
Civil Twilight 5:57 AM MDT 8:28 PM MDT
Nautical Twilight 5:23 AM MDT 9:02 PM MDT
Astronomical Twilight 4:47 AM MDT 9:38 PM MDT
Moon 7:39 AM MDT (4/23) 10:31 PM MDT (4/23)
Length of Visible Light 14h 31m
Length of Day
13h 34m
Waxing Crescent, 5% of the Moon is Illuminated
Apr 23
Waxing Crescent
Apr 29
First Quarter
May 5
Full
May 12
Last Quarter
May 20
New

Hourly Weather History & Observations

Time (MDT) Temp. Dew Point Humidity Pressure Visibility Wind Dir Wind Speed Gust Speed Precip Events Conditions
12:53 AM 60.1 °F 26.1 °F 27% 29.95 in 10.0 mi East 3.5 mph - N/A   Clear
1:53 AM 59.0 °F 26.1 °F 28% 29.95 in 10.0 mi ESE 12.7 mph - N/A   Clear
2:53 AM 63.0 °F 25.0 °F 24% 29.94 in 10.0 mi ESE 12.7 mph - N/A   Clear
3:53 AM 59.0 °F 26.1 °F 28% 29.95 in 10.0 mi SSE 9.2 mph - N/A   Clear
4:53 AM 52.0 °F 28.0 °F 40% 29.97 in 10.0 mi SE 11.5 mph - N/A   Clear
5:53 AM 53.1 °F 28.0 °F 38% 29.97 in 10.0 mi East 15.0 mph - N/A   Clear
6:53 AM 60.1 °F 25.0 °F 26% 29.99 in 10.0 mi East 10.4 mph - N/A   Clear
7:53 AM 54.0 °F 30.0 °F 40% 30.02 in 10.0 mi SSE 10.4 mph - N/A   Clear
8:53 AM 64.0 °F 30.0 °F 28% 30.02 in 10.0 mi SE 12.7 mph - N/A   Clear
9:53 AM 69.1 °F 26.1 °F 20% 30.01 in 10.0 mi South 10.4 mph - N/A   Clear
10:53 AM 73.0 °F 27.0 °F 18% 30.00 in 10.0 mi SSE 11.5 mph - N/A   Clear
11:53 AM 77.0 °F 26.1 °F 15% 29.97 in 10.0 mi SSE 8.1 mph - N/A   Clear
12:53 PM 82.0 °F 25.0 °F 12% 29.92 in 10.0 mi Variable 4.6 mph - N/A   Clear
1:53 PM 84.9 °F 21.9 °F 10% 29.88 in 10.0 mi Variable 4.6 mph - N/A   Scattered Clouds
2:53 PM 87.1 °F 17.1 °F 8% 29.85 in 10.0 mi NNW 8.1 mph - N/A   Scattered Clouds
3:53 PM 88.0 °F 19.0 °F 8% 29.81 in 10.0 mi SW 5.8 mph 17.3 mph N/A   Scattered Clouds
4:53 PM 88.0 °F 12.9 °F 6% 29.81 in 10.0 mi WNW 6.9 mph - N/A   Scattered Clouds
5:53 PM 87.1 °F 15.1 °F 7% 29.80 in 10.0 mi NW 4.6 mph - N/A   Scattered Clouds
6:53 PM 84.9 °F 14.0 °F 7% 29.77 in 10.0 mi WNW 9.2 mph - N/A   Clear
7:53 PM 80.1 °F 16.0 °F 9% 29.79 in 10.0 mi NNW 4.6 mph - N/A   Clear
8:53 PM 72.0 °F 16.0 °F 12% 29.80 in 10.0 mi NE 3.5 mph - N/A   Clear
9:53 PM 64.0 °F 16.0 °F 16% 29.81 in 10.0 mi Calm Calm - N/A   Clear
10:53 PM 66.9 °F 17.1 °F 15% 29.80 in 10.0 mi East 4.6 mph - N/A   Clear
11:53 PM 62.1 °F 19.0 °F 19% 29.81 in 10.0 mi SE 10.4 mph - N/A   Clear